Location: Korczew
(51.3586°N, 19.4491°E)
Time: 23:08:04
(UTC+00:00)

CZ-4C R/B - Pass Details

Date: 19 May 2025
Orbit: 425 x 537 km, 98.0° (Epoch: 16 June)

Event Time Altitude Azimuth Distance (km) Brightness Sun altitude
Rises 21:13:27 0° 15° (NNE) 2,618 7.7 -16.3°
Reaches altitude 10° 21:15:35 10° 17° (NNE) 1,709 6.6 -16.4°
Maximum altitude 21:19:16 78° 103° (ESE) 501 3.0 -16.6°
Enters shadow 21:20:33 37° 184° (S) 755 3.5 -16.6°
